When you browse on this site, cookies collect data to enhance your experience and personalize the content and advertising you see.
Visit our Privacy Policy to learn more. By continuing to use the site, you agree to this use of cookies and data.
  • In Hungary
  • List of Countries
  • For 7 days
  • Water Temperature
  • Satellite Maps
  • Weather Map
  • News
  • Weather Widgets
  • user-avatar
    Login

    Hourly Weather Kakching

    Today, 23 July, Tuesday

    Time Temperature Precipitation Wind Pressure Humidity
    00:00 +24°C° 0 mm 1 mps 686 mmHg 97%
    01:00 +24°C° 0.1 mm 1 mps 685 mmHg 97%
    02:00 +24°C° 0.1 mm 1 mps 685 mmHg 97%
    03:00 +23°C° 0.1 mm 1 mps 685 mmHg 97%
    04:00 +23°C° 0 mm 1 mps 685 mmHg 97%
    05:00 +23°C° 0 mm 1 mps 685 mmHg 97%
    06:00 +24°C° 0 mm 1 mps 685 mmHg 98%
    07:00 +24°C° 0 mm 1 mps 685 mmHg 93%
    08:00 +25°C° 0 mm 1 mps 686 mmHg 89%
    09:00 +26°C° 0 mm 1 mps 686 mmHg 85%
    10:00 +27°C° 0.1 mm 1 mps 686 mmHg 81%
    11:00 +27°C° 0.1 mm 1 mps 686 mmHg 78%
    12:00 +28°C° 0 mm 1 mps 686 mmHg 80%
    13:00 +27°C° 1.1 mm 1 mps 685 mmHg 85%
    14:00 +24°C° 1.1 mm 0 mps 684 mmHg 91%
    15:00 +23°C° 1.1 mm 0 mps 684 mmHg 96%
    16:00 +22°C° 1.7 mm 0 mps 684 mmHg 97%
    17:00 +22°C° 1.7 mm 0 mps 684 mmHg 97%
    18:00 +22°C° 1.7 mm 0 mps 684 mmHg 98%
    19:00 +22°C° 0.4 mm 0 mps 685 mmHg 98%
    20:00 +22°C° 0.4 mm 0 mps 685 mmHg 98%
    21:00 +22°C° 0.4 mm 0 mps 686 mmHg 98%
    22:00 +22°C° 0.1 mm 0 mps 685 mmHg 98%
    23:00 +21°C° 0.1 mm 0 mps 685 mmHg 98%

    Tomorrow, 24 July, Wednesday

    Time Temperature Precipitation Wind Pressure Humidity
    00:00 +21°C° 0.1 mm 0 mps 685 mmHg 98%
    01:00 +21°C° 0.1 mm 0 mps 685 mmHg 98%
    02:00 +21°C° 0.1 mm 0 mps 684 mmHg 98%
    03:00 +21°C° 0.1 mm 0 mps 684 mmHg 97%
    04:00 +21°C° 0 mm 0 mps 684 mmHg 97%
    05:00 +21°C° 0 mm 0 mps 684 mmHg 97%
    06:00 +21°C° 0 mm 0 mps 684 mmHg 97%
    07:00 +22°C° 0 mm 0 mps 685 mmHg 96%
    08:00 +22°C° 0 mm 0 mps 685 mmHg 95%
    09:00 +23°C° 0 mm 0 mps 686 mmHg 94%
    10:00 +24°C° 0.4 mm 0 mps 686 mmHg 91%
    11:00 +24°C° 0.4 mm 0 mps 686 mmHg 88%
    12:00 +27°C° 0.4 mm 1 mps 686 mmHg 86%
    13:00 +27°C° 0.8 mm 1 mps 685 mmHg 86%
    14:00 +27°C° 0.8 mm 1 mps 685 mmHg 87%
    15:00 +27°C° 0.8 mm 1 mps 684 mmHg 88%
    16:00 +26°C° 0.8 mm 1 mps 684 mmHg 90%
    17:00 +24°C° 0.8 mm 0 mps 684 mmHg 93%
    18:00 +23°C° 0.8 mm 0 mps 684 mmHg 95%
    19:00 +23°C° 0.4 mm 0 mps 685 mmHg 95%
    20:00 +22°C° 0.4 mm 0 mps 686 mmHg 95%
    21:00 +22°C° 0.4 mm 0 mps 686 mmHg 96%
    22:00 +22°C° 0.2 mm 0 mps 686 mmHg 96%
    23:00 +22°C° 0.2 mm 0 mps 686 mmHg 96%

    Day after tomorrow, 25 July, Thursday

    Time Temperature Precipitation Wind Pressure Humidity
    00:00 +21°C° 0.2 mm 0 mps 686 mmHg 97%
    01:00 +21°C° 0.1 mm 0 mps 686 mmHg 97%
    02:00 +21°C° 0.1 mm 0 mps 685 mmHg 97%
    03:00 +21°C° 0.1 mm 0 mps 685 mmHg 97%
    04:00 +21°C° 0.1 mm 0 mps 686 mmHg 98%
    05:00 +21°C° 0.1 mm 0 mps 686 mmHg 98%
    06:00 +21°C° 0.1 mm 0 mps 686 mmHg 98%
    07:00 +22°C° 0.1 mm 0 mps 686 mmHg 97%
    08:00 +22°C° 0.1 mm 0 mps 686 mmHg 97%
    09:00 +22°C° 0.1 mm 0 mps 687 mmHg 96%
    10:00 +25°C° 0.6 mm 1 mps 686 mmHg 94%
    11:00 +26°C° 0.6 mm 1 mps 686 mmHg 92%
    12:00 +26°C° 0.6 mm 1 mps 686 mmHg 91%
    13:00 +26°C° 0.5 mm 2 mps 685 mmHg 88%
    14:00 +27°C° 0.5 mm 2 mps 685 mmHg 85%
    15:00 +27°C° 0.5 mm 2 mps 685 mmHg 83%
    16:00 +26°C° 0.1 mm 2 mps 685 mmHg 86%
    17:00 +25°C° 0.1 mm 2 mps 685 mmHg 88%
    18:00 +25°C° 0.1 mm 1 mps 685 mmHg 91%
    19:00 +24°C° 0.1 mm 1 mps 685 mmHg 93%
    20:00 +24°C° 0.1 mm 1 mps 686 mmHg 94%
    21:00 +23°C° 0.1 mm 1 mps 686 mmHg 95%
    22:00 +23°C° 0.1 mm 1 mps 686 mmHg 96%
    23:00 +23°C° 0.1 mm 1 mps 686 mmHg 97%

    26 July, Friday

    Time Temperature Precipitation Wind Pressure Humidity
    00:00 +21°C° 0.1 mm 0 mps 686 mmHg 97%
    01:00 +21°C° 0.1 mm 0 mps 686 mmHg 97%
    02:00 +23°C° 0.1 mm 1 mps 685 mmHg 97%
    03:00 +23°C° 0.1 mm 1 mps 685 mmHg 97%
    04:00 +23°C° 0.2 mm 1 mps 685 mmHg 97%
    05:00 +23°C° 0.2 mm 1 mps 685 mmHg 97%
    06:00 +23°C° 0.2 mm 1 mps 686 mmHg 97%
    07:00 +24°C° 0.2 mm 1 mps 686 mmHg 96%
    08:00 +24°C° 0.2 mm 1 mps 686 mmHg 95%
    09:00 +24°C° 0.2 mm 1 mps 687 mmHg 94%
    10:00 +25°C° 0.4 mm 1 mps 686 mmHg 91%
    11:00 +26°C° 0.4 mm 1 mps 686 mmHg 88%
    12:00 +27°C° 0.4 mm 2 mps 686 mmHg 86%
    13:00 +27°C° 0.5 mm 2 mps 685 mmHg 86%
    14:00 +26°C° 0.5 mm 2 mps 685 mmHg 86%
    15:00 +26°C° 0.5 mm 2 mps 684 mmHg 86%
    16:00 +26°C° 0.3 mm 1 mps 684 mmHg 88%
    17:00 +25°C° 0.3 mm 1 mps 684 mmHg 90%
    18:00 +25°C° 0.3 mm 1 mps 684 mmHg 92%
    19:00 +24°C° 0.2 mm 1 mps 685 mmHg 94%
    20:00 +24°C° 0.2 mm 1 mps 685 mmHg 95%
    21:00 +23°C° 0.2 mm 1 mps 685 mmHg 97%
    22:00 +23°C° 0.2 mm 1 mps 685 mmHg 97%
    23:00 +23°C° 0.2 mm 1 mps 685 mmHg 97%

    27 July, Saturday

    Time Temperature Precipitation Wind Pressure Humidity
    00:00 +23°C° 0.2 mm 1 mps 685 mmHg 98%
    01:00 +23°C° 0.1 mm 1 mps 685 mmHg 97%
    02:00 +21°C° 0.1 mm 0 mps 685 mmHg 97%
    03:00 +21°C° 0.1 mm 0 mps 685 mmHg 97%
    04:00 +23°C° 0.1 mm 1 mps 685 mmHg 97%
    05:00 +23°C° 0.1 mm 1 mps 685 mmHg 97%
    06:00 +23°C° 0.1 mm 1 mps 685 mmHg 97%
    07:00 +24°C° 0.1 mm 1 mps 685 mmHg 94%
    08:00 +24°C° 0.1 mm 1 mps 686 mmHg 91%
    09:00 +25°C° 0.1 mm 1 mps 686 mmHg 88%
    10:00 +26°C° 0.2 mm 1 mps 686 mmHg 86%
    11:00 +26°C° 0.2 mm 1 mps 686 mmHg 84%
    12:00 +27°C° 0.2 mm 1 mps 686 mmHg 81%
    13:00 +28°C° 0.1 mm 1 mps 685 mmHg 77%
    14:00 +28°C° 0.1 mm 2 mps 685 mmHg 74%
    15:00 +29°C° 0.1 mm 2 mps 684 mmHg 70%
    16:00 +28°C° 0.2 mm 1 mps 684 mmHg 76%
    17:00 +27°C° 0.2 mm 1 mps 684 mmHg 83%
    18:00 +26°C° 0.2 mm 1 mps 684 mmHg 89%
    19:00 +25°C° 0.5 mm 1 mps 685 mmHg 92%
    20:00 +24°C° 0.5 mm 1 mps 685 mmHg 95%
    21:00 +23°C° 0.5 mm 1 mps 686 mmHg 97%
    22:00 +21°C° 0.4 mm 0 mps 686 mmHg 97%
    23:00 +21°C° 0.4 mm 0 mps 686 mmHg 97%

    28 July, Sunday

    Time Temperature Precipitation Wind Pressure Humidity
    00:00 +21°C° 0.4 mm 0 mps 686 mmHg 97%
    01:00 +21°C° 0.5 mm 0 mps 686 mmHg 98%
    02:00 +21°C° 0.5 mm 0 mps 686 mmHg 98%
    03:00 +21°C° 0.5 mm 0 mps 686 mmHg 98%
    04:00 +21°C° 0.6 mm 0 mps 686 mmHg 98%
    05:00 +21°C° 0.6 mm 0 mps 686 mmHg 98%
    06:00 +21°C° 0.6 mm 0 mps 686 mmHg 98%
    07:00 +22°C° 0.5 mm 0 mps 687 mmHg 97%
    08:00 +23°C° 0.5 mm 0 mps 687 mmHg 95%
    09:00 +25°C° 0.5 mm 1 mps 687 mmHg 94%
    10:00 +26°C° 0.9 mm 1 mps 687 mmHg 93%
    11:00 +26°C° 0.9 mm 1 mps 687 mmHg 91%
    12:00 +27°C° 0.9 mm 1 mps 686 mmHg 89%
    13:00 +28°C° 0.9 mm 1 mps 686 mmHg 85%
    14:00 +28°C° 0.9 mm 1 mps 685 mmHg 81%
    15:00 +29°C° 0.9 mm 1 mps 685 mmHg 77%
    16:00 +28°C° 1.3 mm 1 mps 685 mmHg 83%
    17:00 +27°C° 1.3 mm 1 mps 684 mmHg 88%
    18:00 +24°C° 1.3 mm 0 mps 684 mmHg 94%
    19:00 +23°C° 1.2 mm 0 mps 685 mmHg 95%
    20:00 +23°C° 1.2 mm 0 mps 686 mmHg 96%
    21:00 +22°C° 1.2 mm 0 mps 686 mmHg 96%
    22:00 +22°C° 0.7 mm 0 mps 686 mmHg 97%
    23:00 +24°C° 0.7 mm 1 mps 686 mmHg 97%
    Show more